Weather in Novlyanskoye

Russia / Ivanovo Oblast     57°27′07″N   41°43′30″E
temp.,
°C
wind,
m/s
gust,
m/s
humid.,
%
clouds,
%
prec.,
mm/h
press.,
hPa
HPBL,
m
25 february, thu
thu2500:00−16s41094100 0.4 1027476
03:00−16s51095100 1.6 1024451
06:00−16s51195100 2.0 1018491
09:00−15s4995100 4.4 1014463
12:00−11sse4693100 1.2 1012345
15:00−9se2393100 1.5 1011282
18:00−10ese239695 0.3 101177
21:00−11se229794 0.4 101262
26 february, fri
fri2600:00−9ese2296100 0.4 101189
03:00−9ese2496100 1.0 1011140
06:00−9se3696100 0.3 1009168
09:00−8ese4795100 1.7 1007190
12:00−7se4896100 2.5 1002237
15:00−2sse4899100 8.1 999292
18:00+2w614100100 5.9 996654
21:000w5119793 6.0 995690
27 february, sat
sat2700:000w4898100 0.6 993444
03:000w4998100 1.6 994559
06:00−2wnw499599 0.4 994364
09:00−10nne489599 1.0 997336
12:00−10nne5893100 0.9 1000559
15:00−10nne5989100 1.1 1004676
18:00−13nne41091100 0.1 1007590
21:00−15n3109398 0.1 1010348
28 february, sun
sun2800:00−17n389418 0.0 1012230
03:00−19n39959 0.0 1014209
06:00−20nnw37970 0.0 1015141
09:00−18nnw36940 0.0 1017234
12:00−13nnw359117 0.0 1017356
15:00−11nnw369050 0.0 1018468
18:00−13nw2396100 0.0 101964
21:00−15nnw239769 0.0 102139
1 march, mon
mon100:00−15nnw229849 0.0 102320
03:00−14nw129774 0.1 102420
06:00−12w1297100 0.1 102421
09:00−9wsw239799 0.1 1024116
12:00−4wsw359599 0.1 1023420
15:00−2wsw479399 0.1 1021498
18:00−1wsw51195100 0.1 1019621
21:000w61292100 0.2 1016879